Tracking 30692 objects as of 17-Jun-2025
HD Live streaming from Space Station
objects crossing your sky now

COSMOS 1980

Track COSMOS 1980 now!
10-day predictions
COSMOS 1980 is classified as:


NORAD ID: 19649
Int'l Code: 1988-102A
Perigee: 844.4 km
Apogee: 853.6 km
Inclination: 71.0 °
Period: 101.8 minutes
Semi major axis: 7219 km
RCS: 11.2405 m2 (large)
Launch date: November 23, 1988
Source: Commonwealth of Independent States (former USSR) (CIS)
Launch site: TYURATAM MISSILE AND SPACE COMPLEX (TTMTR)
Your satellite tracking list
Your tracking list is empty




NASA's NSSDC Master Catalog

Two Line Element Set (TLE):
1 19649U 88102A   25167.44037773  .00000247  00000-0  15197-3 0  9993
2 19649  71.0006  53.3792 0006360 211.1527 148.9219 14.15136572887471
Source of the keplerian elements: AFSPC